This is the latest recevied weather packets stored in our database for station/object DH6PF-10. If no packets are shown the sender has not sent any weather packets the latest 10 day(s).
| Time | Temp. | Humidity | Pressure | Rain* | Wind** | Luminosity | Snow |
|---|---|---|---|---|---|---|---|
| 1787657510 | 19.44° C | 68% | 1016.3 hPa | - | - | - | - |
| 1787656910 | 19.44° C | 68% | 1016.4 hPa | - | - | - | - |
| 1787656310 | 19.44° C | 68% | 1016.3 hPa | - | - | - | - |
| 1787655710 | 18.89° C | 68% | 1016.4 hPa | - | - | - | - |
| 1787655110 | 19.44° C | 69% | 1016.3 hPa | - | - | - | - |
| 1787654510 | 19.44° C | 66% | 1016.2 hPa | - | - | - | - |
| 1787653910 | 19.44° C | 67% | 1016.3 hPa | - | - | - | - |
| 1787653310 | 18.89° C | 69% | 1016.4 hPa | - | - | - | - |
| 1787652710 | 18.89° C | 69% | 1016.2 hPa | - | - | - | - |
| 1787652110 | 18.89° C | 69% | 1016.3 hPa | - | - | - | - |
| 1787651510 | 18.33° C | 69% | 1016.2 hPa | - | - | - | - |
| 1787650910 | 17.78° C | 72% | 1016.2 hPa | - | - | - | - |
| 1787650310 | 17.78° C | 73% | 1016.3 hPa | - | - | - | - |
| 1787649710 | 17.22° C | 73% | 1016.1 hPa | - | - | - | - |
| 1787649110 | 16.67° C | 75% | 1016 hPa | - | - | - | - |
| 1787648510 | 16.67° C | 76% | 1015.9 hPa | - | - | - | - |
| 1787647910 | 16.11° C | 77% | 1016.3 hPa | - | - | - | - |
| 1787647310 | 16.67° C | 75% | 1016 hPa | - | - | - | - |
| 1787646710 | 16.67° C | 75% | 1016.1 hPa | - | - | - | - |
| 1787646110 | 16.11° C | 76% | 1016.1 hPa | - | - | - | - |
| 1787645510 | 15.56° C | 76% | 1016 hPa | - | - | - | - |
| 1787644910 | 15.56° C | 78% | 1016.1 hPa | - | - | - | - |
| 1787644310 | 15.56° C | 80% | 1015.7 hPa | - | - | - | - |
| 1787643710 | 15.56° C | 79% | 1015.7 hPa | - | - | - | - |
| 1787643110 | 15° C | 80% | 1015.8 hPa | - | - | - | - |
* Rain since midnight (hover to see other rain measurements)
** Current wind speed in m/s (hover to see current wind gust speed)